Location: Newark
(42.0333°N, 13.0667°E)
Time: 19:49:09
(UTC+00:00)

ISS - Pass Details

Date: 25 November 2019
Orbit: 411 x 421 km, 51.6° (Epoch: 13 December)

Event Time Altitude Azimuth Distance (km) Brightness Sun altitude
Rises 18:12:19 0° 276° (W) 2,357 1.3 -27.9°
Reaches altitude 10° 18:14:45 10° 294° (WNW) 1,497 -0.2 -28.4°
Enters shadow 18:15:33 14° 304° (NW) 1,270 -0.8 -28.5°
